Waarnemingen

Advertentie
Mijn weer
Ahaus, Duitsland (10309): temperatuur & dauwpunt: 19.02.2018 20:00:00 - 25.02.2018 20:00:00 (CET)Ahaus, Duitsland (10309): temperatuur 5cm & temperatuur -5cm: 19.02.2018 20:00:00 - 25.02.2018 20:00:00 (CET)Ahaus, Duitsland (10309): temperatuur -20cm & temperatuur -100cm: 19.02.2018 20:00:00 - 25.02.2018 20:00:00 (CET)Ahaus, Duitsland (10309): windsnelheid & windstoten: 19.02.2018 20:00:00 - 25.02.2018 20:00:00 (CET)Ahaus, Duitsland (10309): windrichting: 19.02.2018 20:00:00 - 25.02.2018 20:00:00 (CET)Ahaus, Duitsland (10309): luchtdruk: 19.02.2018 20:00:00 - 25.02.2018 20:00:00 (CET)Ahaus, Duitsland (10309): zicht: 19.02.2018 20:00:00 - 25.02.2018 20:00:00 (CET)Ahaus, Duitsland (10309): Zonneschijnduur: 19.02.2018 20:00:00 - 25.02.2018 20:00:00 (CET)Ahaus, Duitsland (10309): neerslag: 19.02.2018 20:00:00 - 25.02.2018 20:00:00 (CET)
Datum & Tijd tt [°C] td [°C] tt 5cm [°C] tt -5cm [°C] tt -20cm [°C] tt -100cm [°C] ff [km/u] ff [kn] fx [km/u] fx [kn] dd ppp [hPa] vv [km] sd [min] rr [mm]
25.02.2018 20:00:00 -2,8 -8,1 -4,0 -0,1 0,4 4,3 24 13 35 19 ONO 1031,1 41 0 0,0
25.02.2018 19:00:00 -1,9 -9,2 -2,6 -0,1 0,4 4,3 23 13 36 19 ONO 1031,0 49 0 0,0
25.02.2018 18:00:00 -1,5 -10,5 -1,8 -0,1 0,4 4,3 23 13 41 22 NO 1030,6 44 40 0,0
25.02.2018 17:00:00 -1,1 -10,2 0,2 -0,1 0,4 4,3 22 12 38 20 NO 1030,4 28 60 0,0
25.02.2018 16:00:00 -0,9 -11,2 1,0 -0,2 0,4 4,3 23 12 44 24 NO 1030,5 21 60 0,0
25.02.2018 15:00:00 -0,6 -11,0 1,8 -0,2 0,5 4,3 19 11 42 23 ONO 1030,6 22 60 0,0
25.02.2018 14:00:00 -0,4 -10,8 2,7 -0,3 0,5 4,3 23 12 36 19 ONO 1031,1 20 60 0,0
25.02.2018 13:00:00 -1,1 -10,6 2,2 -0,4 0,5 4,3 19 10 39 21 ONO 1031,6 17 60 0,0
25.02.2018 12:00:00 -1,6 -10,6 2,2 -0,5 0,5 4,4 18 10 36 19 O 1032,2 16 60 0,0
25.02.2018 11:00:00 -2,9 -11,1 0,6 -0,7 0,5 4,4 20 11 32 17 ONO 1032,6 25 36 0,0
25.02.2018 10:00:00 -3,7 -10,5 -1,5 -1,2 0,5 4,4 21 12 31 17 ONO 1032,5 15 60 0,0
25.02.2018 09:00:00 -4,6 -9,8 -3,2 -2,0 0,5 4,4 13 7 24 13 ONO 1032,4 24 54 0,0
25.02.2018 08:00:00 -5,7 -9,8 -7,2 -2,2 0,6 4,4 15 8 23 12 ONO 1032,0 36 0 0,0
25.02.2018 07:00:00 -5,7 -9,6 -8,0 -2,0 0,6 4,4 13 7 20 11 ONO 1031,4 33 0 0,0
25.02.2018 06:00:00 -5,3 -9,7 -7,3 -1,7 0,6 4,4 14 8 24 13 ONO 1031,4 38 0 0,0
25.02.2018 05:00:00 -4,6 -10,0 -6,3 -1,4 0,6 4,4 15 8 26 14 ONO 1031,2 39 0 0,0
25.02.2018 04:00:00 -4,4 -9,7 -6,2 -1,1 0,7 4,4 16 9 25 14 ONO 1030,6 40 0 0,0
25.02.2018 03:00:00 -3,8 -9,7 -5,6 -0,7 0,7 4,4 18 10 29 16 ONO 1030,6 42 0 0,0
25.02.2018 02:00:00 -3,4 -9,5 -5,1 -0,4 0,7 4,4 16 9 30 16 ONO 1030,4 48 0 0,0
25.02.2018 01:00:00 -2,8 -9,5 -4,5 -0,1 0,7 4,4 15 8 36 19 ONO 1030,4 50 0 0,0
25.02.2018 00:00:00 -2,2 -9,3 -3,7 0,0 0,7 4,4 19 10 35 19 ONO 1030,1 60 0 0,0
24.02.2018 23:00:00 -1,8 -9,0 -3,3 0,0 0,7 4,4 18 10 35 19 ONO 1029,8 60 0 0,0
24.02.2018 22:00:00 -1,4 -9,1 -2,9 0,0 0,7 4,4 20 11 34 18 O 1029,4 65 0 0,0
24.02.2018 21:00:00 -1,2 -8,4 -2,8 0,0 0,7 4,4 21 11 37 20 ONO 1029,2 48 0 0,0
24.02.2018 20:00:00 -0,7 -8,2 -2,4 0,0 0,7 4,4 19 11 40 22 ONO 1028,8 45 0 0,0
24.02.2018 19:00:00 -0,1 -8,1 -1,6 0,0 0,7 4,4 20 11 40 22 ONO 1028,4 50 0 0,0
24.02.2018 18:00:00 0,8 -7,5 -0,5 0,0 0,7 4,4 24 13 40 22 ONO 1027,9 39 37 0,0
24.02.2018 17:00:00 1,1 -6,9 1,5 0,0 0,7 4,4 21 12 41 22 O 1027,8 24 56 0,0
24.02.2018 16:00:00 1,1 -7,0 1,7 -0,1 0,7 4,4 26 14 43 23 ONO 1027,9 17 60 0,0
24.02.2018 15:00:00 1,5 -5,6 3,3 -0,1 0,7 4,4 23 12 45 24 O 1027,9 24 45 0,0
24.02.2018 14:00:00 1,8 -4,9 4,4 -0,1 0,7 4,4 30 16 51 28 ONO 1027,9 11 57 0,0
24.02.2018 13:00:00 0,8 -5,8 1,6 -0,1 0,7 4,4 28 15 45 24 O 1028,2 22 54 0,0
24.02.2018 12:00:00 0,3 -7,0 2,4 -0,2 0,8 4,5 26 14 48 26 O 1028,5 10 60 0,0
24.02.2018 11:00:00 -0,7 -8,6 1,3 -0,3 0,8 4,5 21 12 41 22 O 1028,3 14 60 0,0
24.02.2018 10:00:00 -2,1 -9,7 0,0 -0,5 0,8 4,5 16 9 32 17 O 1028,1 13 60 0,0
24.02.2018 09:00:00 -3,2 -9,1 -2,4 -0,8 0,8 4,5 17 9 28 15 ONO 1027,6 15 51 0,0
24.02.2018 08:00:00 -4,1 -9,4 -5,3 -0,8 0,9 4,5 14 7 23 12 O 1027,3 13 0 0,0
24.02.2018 07:00:00 -4,1 -9,1 -5,6 -0,6 0,9 4,5 16 9 24 13 ONO 1026,7 13 0 0,0
24.02.2018 06:00:00 -3,9 -9,2 -5,3 -0,3 0,9 4,5 15 8 25 14 ONO 1026,3 14 0 0,0
24.02.2018 05:00:00 -3,7 -9,1 -5,3 -0,1 1,0 4,5 16 9 30 16 ONO 1025,8 14 0 0,0
24.02.2018 04:00:00 -3,0 -9,6 -4,3 0,0 1,0 4,5 21 11 36 20 ONO 1025,2 16 0 0,0
24.02.2018 03:00:00 -3,0 -9,2 -4,5 0,1 1,0 4,5 18 10 30 16 ONO 1025,2 16 0 0,0
24.02.2018 02:00:00 -2,7 -9,5 -4,2 0,2 1,0 4,5 12 7 35 19 O 1025,2 18 0 0,0
24.02.2018 01:00:00 -2,4 -9,4 -4,0 0,2 1,1 4,5 21 11 33 18 ONO 1025,0 17 0 0,0
24.02.2018 00:00:00 -2,2 -8,7 -3,7 0,2 1,1 4,5 20 11 29 16 ONO 1025,0 18 0 0,0
23.02.2018 23:00:00 -1,9 -7,5 -3,5 0,3 1,1 4,5 16 9 29 16 ONO 1024,6 15 0 0,0
23.02.2018 22:00:00 -1,8 -6,6 -3,5 0,3 1,1 4,5 17 9 28 15 ONO 1024,4 13 0 0,0
23.02.2018 21:00:00 -1,4 -6,5 -3,0 0,3 1,1 4,5 18 10 35 19 ONO 1024,2 13 0 0,0
23.02.2018 20:00:00 -0,8 -6,5 -2,3 0,4 1,2 4,5 19 10 29 16 ONO 1023,9 17 0 0,0
23.02.2018 19:00:00 -0,6 -6,2 -2,5 0,5 1,2 4,5 16 8 33 18 ONO 1023,6 19 0 0,0
23.02.2018 18:00:00 0,6 -7,0 -0,8 0,6 1,2 4,5 25 13 38 20 ONO 1023,1 26 37 0,0
23.02.2018 17:00:00 1,6 -6,6 2,0 1,3 1,1 4,5 21 11 34 18 ONO 1023,1 20 60 0,0
23.02.2018 16:00:00 2,1 -6,7 3,5 1,5 1,0 4,5 23 12 43 23 ONO 1023,2 17 60 0,0
23.02.2018 15:00:00 2,1 -5,9 4,7 0,2 1,0 4,5 23 12 40 22 ONO 1023,6 12 60 0,0
23.02.2018 14:00:00 1,9 -6,2 4,6 0,2 1,0 4,5 23 12 36 20 ONO 1023,9 13 60 0,0
23.02.2018 13:00:00 1,6 -6,5 4,4 0,2 1,0 4,5 24 13 38 20 ONO 1024,2 14 58 0,0
23.02.2018 12:00:00 0,9 -5,8 3,6 0,2 1,0 4,5 18 10 35 19 O 1024,7 14 25 0,0
23.02.2018 11:00:00 -0,3 -5,8 0,2 0,2 1,0 4,5 15 8 37 20 O 1025,2 13 27 0,0
23.02.2018 10:00:00 0,0 -5,5 1,3 0,2 1,0 4,5 17 9 31 17 O 1025,1 17 60 0,0
23.02.2018 09:00:00 -1,2 -3,5 -1,4 0,2 1,0 4,5 16 9 27 14 ONO 1024,7 5 49 0,0
23.02.2018 08:00:00 -1,9 -3,3 -3,6 0,2 1,0 4,5 10 5 19 11 NO 1024,4 4,0 0 0,0
23.02.2018 07:00:00 -1,6 -3,1 -3,3 0,2 1,1 4,5 10 6 18 10 NO 1024,1 3,5 0 0,0
23.02.2018 06:00:00 -1,0 -2,6 -2,1 0,2 1,1 4,6 13 7 21 12 NO 1023,9 3,6 0 0,0
23.02.2018 05:00:00 -1,0 -2,4 -1,6 0,2 1,1 4,6 11 6 19 10 NO 1023,8 3,2 0 0,0
23.02.2018 04:00:00 -1,2 -2,6 -1,9 0,2 1,1 4,6 9 5 19 11 NO 1024,0 2,9 0 0,0
23.02.2018 03:00:00 -1,5 -2,8 -3,1 0,2 1,1 4,6 10 6 17 9 NNO 1024,4 3,2 0 0,0
23.02.2018 02:00:00 -1,6 -3,0 -2,1 0,3 1,1 4,6 10 5 17 9 NNO 1024,5 3,4 0 0,0
23.02.2018 01:00:00 -2,0 -3,4 -3,9 0,3 1,2 4,6 10 5 15 8 NNO 1024,7 3,7 0 0,0
23.02.2018 00:00:00 -1,4 -3,1 -3,6 0,3 1,2 4,6 9 5 16 9 NO 1024,8 4,1 0 0,0
22.02.2018 23:00:00 -0,7 -2,9 -3,0 0,3 1,2 4,6 11 6 19 11 NO 1025,0 5 0 0,0
22.02.2018 22:00:00 -0,6 -3,4 -2,5 0,4 1,2 4,6 13 7 19 11 ONO 1024,7 7 0 0,0
22.02.2018 21:00:00 -0,4 -4,0 -2,9 0,4 1,3 4,6 10 6 16 9 NO 1024,8 13 0 0,0
22.02.2018 20:00:00 0,1 -4,4 -2,9 0,4 1,3 4,6 9 5 19 11 NO 1025,0 14 0 0,0
22.02.2018 19:00:00 0,8 -4,8 -1,5 0,5 1,3 4,6 12 7 26 14 NO 1024,7 17 0 0,0
22.02.2018 18:00:00 1,6 -4,5 -0,8 0,8 1,3 4,6 14 7 30 16 NO 1024,5 17 25 0,0
22.02.2018 17:00:00 2,8 -5,4 3,0 1,7 1,2 4,6 19 10 31 17 NO 1024,4 16 60 0,0
22.02.2018 16:00:00 3,1 -4,1 4,3 1,7 1,1 4,6 21 11 32 17 NO 1024,3 13 60 0,0
22.02.2018 15:00:00 3,4 -3,8 6,5 0,2 1,1 4,6 15 8 31 17 NO 1024,7 20 59 0,0
22.02.2018 14:00:00 2,9 -4,0 5,8 0,2 1,1 4,6 19 10 32 18 NO 1025,5 13 56 0,0
22.02.2018 13:00:00 2,6 -3,7 6,4 0,2 1,1 4,6 18 10 32 18 NO 1025,8 17 28 0,0
22.02.2018 12:00:00 1,7 -4,2 2,8 0,2 1,1 4,6 19 10 28 15 NO 1026,1 15 27 0,0
22.02.2018 11:00:00 1,0 -2,9 4,1 0,1 1,1 4,6 14 8 23 12 ONO 1026,3 11 60 0,0
22.02.2018 10:00:00 -0,2 -3,7 2,4 0,1 1,1 4,6 9 5 18 10 NO 1026,6 10 60 0,0
22.02.2018 09:00:00 -1,8 -4,6 -0,8 0,1 1,2 4,6 7 4 14 8 NO 1026,4 8 49 0,0
22.02.2018 08:00:00 -2,9 -5,2 -5,2 0,2 1,2 4,6 8 4 16 9 NO 1026,2 8 0 0,0
22.02.2018 07:00:00 -3,0 -5,3 -5,8 0,2 1,2 4,6 9 5 16 8 NO 1025,9 9 0 0,0
22.02.2018 06:00:00 -2,2 -5,1 -4,2 0,2 1,2 4,6 11 6 18 10 ONO 1025,9 10 0 0,0
22.02.2018 05:00:00 -2,0 -5,1 -4,1 0,3 1,3 4,6 11 6 18 10 NO 1025,6 10 0 0,0
22.02.2018 04:00:00 -2,2 -5,1 -4,9 0,3 1,3 4,6 9 5 16 8 NO 1025,7 9 0 0,0
22.02.2018 03:00:00 -1,7 -5,1 -4,2 0,3 1,3 4,6 10 5 16 8 NO 1025,9 9 0 0,0
22.02.2018 02:00:00 -2,1 -5,1 -4,9 0,3 1,4 4,6 8 5 12 7 NO 1026,1 8 0 0,0
22.02.2018 01:00:00 -1,5 -5,0 -4,1 0,4 1,4 4,6 9 5 15 8 NO 1026,2 9 0 0,0
22.02.2018 00:00:00 -1,5 -4,8 -4,0 0,4 1,5 4,6 10 5 14 8 NO 1026,3 8 0 0,0
21.02.2018 23:00:00 -1,4 -4,5 -4,6 0,5 1,5 4,6 8 4 15 8 NO 1026,4 8 0 0,0
21.02.2018 22:00:00 -0,7 -4,6 -3,4 0,5 1,6 4,6 9 5 15 8 NO 1026,2 9 0 0,0
21.02.2018 21:00:00 0,1 -4,2 -2,5 0,6 1,7 4,7 10 6 17 9 NO 1026,0 8 0 0,0
21.02.2018 20:00:00 0,5 -4,1 -2,1 0,7 1,7 4,7 9 5 16 9 NO 1025,8 9 0 0,0
21.02.2018 19:00:00 1,0 -4,0 -1,6 0,9 1,8 4,7 9 5 21 11 NNO 1025,6 9 0 0,0
21.02.2018 18:00:00 2,3 -4,4 0,7 2,0 1,7 4,7 16 9 31 17 NO 1025,2 10 22 0,0
21.02.2018 17:00:00 2,9 -4,0 3,5 2,7 1,5 4,7 13 7 23 12 NO 1024,9 9 60 0,0
21.02.2018 16:00:00 3,3 -4,1 4,7 2,9 1,3 4,7 15 8 25 14 NO 1025,2 10 60 0,0
21.02.2018 15:00:00 3,4 -3,9 6,4 2,0 1,2 4,7 14 7 24 13 NO 1025,6 10 60 0,0
21.02.2018 14:00:00 3,2 -4,2 7,0 0,2 1,2 4,7 14 8 21 11 ONO 1026,1 10 60 0,0
21.02.2018 13:00:00 2,8 -4,0 6,4 0,2 1,2 4,7 14 8 21 11 ONO 1026,4 9 60 0,0
21.02.2018 12:00:00 1,8 -3,3 5,8 0,2 1,2 4,7 10 6 18 10 NO 1026,7 7 60 0,0
21.02.2018 11:00:00 0,3 -3,1 3,3 0,2 1,2 4,7 8 5 12 6 NNO 1026,7 4,9 60 0,0
21.02.2018 10:00:00 -1,3 -3,6 0,2 0,2 1,3 4,7 6 4 10 6 NO 1026,5 3,2 60 0,0
21.02.2018 09:00:00 -2,9 -4,4 -2,8 0,2 1,3 4,7 6 3 8 5 N 1026,3 2,3 28 0,0
21.02.2018 08:00:00 -3,3 -4,5 -5,5 0,2 1,3 4,7 6 4 11 6 NNO 1026,1 2,5 0 0,0
21.02.2018 07:00:00 -3,4 -4,7 -5,4 0,3 1,4 4,7 8 5 11 6 NNO 1026,1 2,5 0 0,0
21.02.2018 06:00:00 -3,0 -4,1 -6,7 0,3 1,4 4,7 5 3 9 5 NO 1025,6 2,9 0 0,0
21.02.2018 05:00:00 -2,6 -4,3 -5,1 0,3 1,4 4,7 7 4 15 8 NO 1025,5 3,1 0 0,0
21.02.2018 04:00:00 -2,5 -4,4 -4,3 0,4 1,5 4,7 9 5 15 8 NNO 1025,6 3,4 0 0,0
21.02.2018 03:00:00 -2,6 -4,4 -5,6 0,4 1,5 4,7 8 4 11 6 N 1025,2 3,1 0 0,0
21.02.2018 02:00:00 -2,2 -4,2 -5,2 0,4 1,6 4,7 8 4 13 7 NNO 1024,9 3,8 0 0,0
21.02.2018 01:00:00 -1,6 -4,1 -4,2 0,5 1,6 4,7 8 5 13 7 NNO 1024,6 4,3 0 0,0
21.02.2018 00:00:00 -0,9 -3,7 -4,1 0,5 1,7 4,7 8 4 18 10 NO 1024,0 4,7 0 0,0
20.02.2018 23:00:00 -0,1 -3,7 -2,4 0,6 1,8 4,7 11 6 16 9 NNO 1023,6 5 0 0,0
20.02.2018 22:00:00 0,1 -3,6 -1,8 0,6 1,9 4,7 10 6 14 8 N 1023,0 6 0 0,0
20.02.2018 21:00:00 0,6 -3,2 -2,9 0,7 2,0 4,7 8 4 13 7 N 1022,4 6 0 0,0
20.02.2018 20:00:00 0,9 -3,0 -3,8 0,9 2,1 4,7 6 3 20 11 NO 1021,8 7 0 0,0
20.02.2018 19:00:00 1,8 -3,0 -1,1 1,3 2,2 4,7 11 6 22 12 ONO 1021,2 8 0 0,0
20.02.2018 18:00:00 2,9 -2,6 0,1 2,3 2,1 4,7 11 6 19 10 NO 1020,5 9 18 0,0
20.02.2018 17:00:00 3,8 -2,3 4,1 3,1 2,0 4,7 9 5 22 12 NO 1019,8 8 50 0,0
20.02.2018 16:00:00 4,0 -1,9 4,4 3,6 1,7 4,7 16 8 26 14 NO 1019,7 8 1 0,0
20.02.2018 15:00:00 4,5 -2,5 5,7 3,5 1,5 4,7 13 7 21 11 NO 1019,4 10 0 0,0
20.02.2018 14:00:00 4,5 -2,0 5,9 2,5 1,3 4,7 11 6 17 9 NO 1019,6 8 8 0,0
20.02.2018 13:00:00 4,0 -2,0 5,0 0,4 1,3 4,7 10 6 17 9 ONO 1019,6 8 25 0,0
20.02.2018 12:00:00 3,8 -1,8 6,0 0,3 1,3 4,7 10 5 16 8 ONO 1019,7 8 60 0,0
20.02.2018 11:00:00 2,1 -1,7 4,5 0,3 1,4 4,7 9 5 15 8 ONO 1019,3 5 60 0,0
20.02.2018 10:00:00 -0,1 -2,3 1,4 0,3 1,4 4,7 8 4 13 7 ONO 1019,4 3,4 60 0,0
20.02.2018 09:00:00 -2,6 -3,3 -2,2 0,3 1,4 4,7 4 2 7 4 NW 1019,5 2,2 45 0,0
20.02.2018 08:00:00 -3,9 -4,2 -6,1 0,3 1,5 4,7 6 3 8 4 ONO 1019,2 1,6 0 0,0
20.02.2018 07:00:00 -3,7 -4,0 -6,5 0,4 1,5 4,7 5 3 9 5 N 1019,1 1,7 0 0,0
20.02.2018 06:00:00 -2,9 -3,6 -5,0 0,4 1,6 4,7 7 4 19 10 NNO 1019,0 2,2 0 0,0
20.02.2018 05:00:00 -3,1 -3,6 -6,4 0,4 1,6 4,7 4 2 6 3 ONO 1018,5 2,2 0 0,0
20.02.2018 04:00:00 -3,2 -3,7 -6,7 0,5 1,7 4,7 4 2 10 5 ONO 1018,6 2,3 0 0,0
20.02.2018 03:00:00 -3,2 -3,8 -6,1 0,5 1,8 4,7 6 3 8 4 N 1018,7 2,4 0 0,0
20.02.2018 02:00:00 -2,7 -3,0 -5,5 0,6 1,8 4,7 4 2 5 3 N 1018,6 2,5 0 0,0
20.02.2018 01:00:00 -2,5 -3,0 -5,3 0,7 1,9 4,7 4 2 19 10 N 1018,8 2,5 0 0,0
20.02.2018 00:00:00 -2,2 -2,7 -5,0 0,7 2,0 4,7 3 2 5 3 NO 1018,6 3,1 0 0,0
19.02.2018 23:00:00 -1,2 -2,1 -4,6 0,9 2,2 4,7 4 2 4 2 NNW 1018,6 3,4 0 0,0
19.02.2018 22:00:00 -0,4 -2,3 -3,5 1,0 2,3 4,7 3 2 7 4 NNO 1018,8 4,9 0 0,0
19.02.2018 21:00:00 1,2 -1,7 -2,1 1,7 2,4 4,7 6 3 8 5 ONO 1018,9 6 0 0,0
19.02.2018 20:00:00 2,0 -1,5 -0,1 2,2 2,4 4,7 5 3 8 4 ONO 1018,8 6 0 0,0

tt = temperatuur
td = dauwpunt
tt 5cm = temperatuur 5cm
tt -5cm = temperatuur -5cm
tt -20cm = temperatuur -20cm
tt -100cm = temperatuur -100cm
ff = windsnelheid
fx = windstoten
dd = windrichting
ppp = luchtdruk
vv = zicht
sd = Zonneschijnduur
rr = neerslag

Weerstations in de omgeving